Miscellaneous Local Product
Issued by NWS Hastings, NE

Home | Current Version | Previous Version | Text Only | Print | Product List | Glossary Off
Versions: 1 2 3 4 5 6 7 8 9 10 11 12 13 14 15 16 17 18 19 20 21 22 23 24 25 26 27 28 29 30 31 32 33 34 35 36 37 38 39 40 41 42 43 44 45 46 47 48 49 50

000
AXUS43 KGID 020002
MISGRI

GID CWA HOURLY WEATHER ROUNDUP
NATIONAL WEATHER SERVICE HASTINGS NE
700 PM CDT SAT AUG 01 2015

NOTE: "FAIR" INDICATES FEW OR NO CLOUDS BELOW 12,000 FEET WITH NO
SIGNIFICANT WEATHER AND/OR OBSTRUCTIONS TO VISIBILITY.

...SOUTH CENTRAL NEBRASKA...

CITY           SKY/WX    TMP DP  RH WIND       PRES   REMARKS
GRAND ISLAND   MOSUNNY   79  64  60 S7        29.94F
HASTINGS       SUNNY     83  65  54 S9        29.94F
KEARNEY        MOSUNNY   81  63  54 S8        29.95F
ORD            MOSUNNY   80  58  46 S7        29.92F
YORK           SUNNY     79  70  73 CALM      29.93F
AURORA         MOSUNNY   80  66  63 S5        29.93F
LEXINGTON      MOSUNNY   83  62  50 E7        29.98F
HOLDREGE       MOSUNNY   80  63  54 E9        29.98F
HEBRON         SUNNY     85  65  51 E7        29.94F

...NEBRASKA PANHANDLE...

CITY           SKY/WX    TMP DP  RH WIND       PRES   REMARKS
CHADRON        SUNNY     92  60  34 S10       29.92S HX  91
ALLIANCE       MOSUNNY   83  58  42 S14       29.98F
SCOTTSBLUFF    PTSUNNY   85  60  42 E17       29.98R
SIDNEY         PTSUNNY   76  59  55 NE24      30.05R

...WESTERN AND NORTH CENTRAL NEBRASKA...

CITY           SKY/WX    TMP DP  RH WIND       PRES   REMARKS
VALENTINE      SUNNY     83  57  41 S15       29.95F
AINSWORTH      SUNNY     82  57  42 SW15      29.96S
ONEILL         SUNNY     85  54  34 SW17G23   29.92S
BROKEN BOW     PTSUNNY   80  58  46 S8        29.95F
IMPERIAL       SUNNY     89  49  25 SE17      29.98S
NORTH PLATTE   MOSUNNY   78  61  55 SE14      29.97F
MCCOOK         SUNNY     92  55  28 S12       29.95F HX  90

...EASTERN NEBRASKA...

CITY           SKY/WX    TMP DP  RH WIND       PRES   REMARKS
NORFOLK        SUNNY     82  65  56 S9        29.91F
SO SIOUX CITY  SUNNY     81  68  64 S14       29.88F
TEKAMAH        SUNNY     82  71  69 S8        29.89F
COLUMBUS       SUNNY     82  64  54 SW6       29.91F
ALBION         SUNNY     82  60  46 S8        29.92F
OMAHA EPPLEY   MOSUNNY   84  68  58 S12       29.90F
MILLARD        MOSUNNY   85  70  60 S6        29.91S HX  90
LINCOLN        SUNNY     86  61  42 S8        29.91F
NEBRASKA CITY  MOSUNNY   84  65  52 S3        29.92F
BEATRICE       SUNNY     85  71  62 CALM      29.91F HX  90
FALLS CITY     SUNNY     87  76  69 E3        29.92F HX  97

...NORTHERN KANSAS...

CITY           SKY/WX    TMP DP  RH WIND       PRES   REMARKS
GOODLAND       SUNNY     87  51  28 SE15      30.03S
HILL CITY      SUNNY     92  59  33 SE10      29.96F HX  91
NORTON         CLEAR     88  52  29 SE8       29.95F
PHILLIPSBURG   SUNNY     93  63  36 SE3       29.94F HAZE    HX  94
SMITH CENTER   SUNNY     91  61  35 SE8       29.94F HX  91
HAYS           SUNNY     91  61  35 SE14      29.95F HX  91
RUSSELL        SUNNY     91  61  36 S13       29.94F HX  91
CONCORDIA      MOSUNNY   90  64  42 S10       29.92F HX  91
SALINA         SUNNY     92  63  38 S10       29.93F HX  93
TOPEKA         SUNNY     91  66  43 S7        29.93F HX  93



USA.gov is the U.S. government's official web portal to all federal, state and local government web resources and services.